ISS (ZARYA) 1 25544U 98067A 21015.90475541 .00001829 00000-0 40904-4 0 9995 2 25544 51.6460 15.9360 0000320 239.4903 199.1723 15.49298839264993 KESTREL EYE IIM (KE2M) 1 42982U 98067NE 21015.79026371 .00025269 00000-0 13837-3 0 9998 2 42982 51.6331 271.3692 0003849 171.9111 188.1953 15.79656307184514 DELLINGR (RBLE) 1 43021U 98067NJ 21015.76950754 .00029272 00000-0 14485-3 0 9999 2 43021 51.6305 268.2778 0003517 140.3256 219.8004 15.81784197180328 TEMPEST-D 1 43547U 98067NV 21015.31030796 .00011102 00000-0 88982-4 0 9995 2 43547 51.6353 317.9422 0006306 122.3517 237.8092 15.71606470142704 RADSAT-G 1 43553U 98067PB 21015.73545841 .00053111 00000-0 22085-3 0 9997 2 43553 51.6363 285.5802 0005956 156.5399 203.5878 15.85171231143600 AEROCUBE 12A 1 43556U 18046C 21015.55934756 .00002365 00000-0 90297-4 0 9992 2 43556 51.6395 165.7987 0007493 338.1456 21.9204 15.30810497139852 AEROCUBE 12B 1 43557U 18046D 21015.53659835 .00001525 00000-0 63361-4 0 9992 2 43557 51.6411 167.1250 0007693 337.6188 22.4456 15.30369882139783 LEMUR-2-VU 1 43558U 18046E 21015.51792983 .00002452 00000-0 88559-4 0 9999 2 43558 51.6403 160.4169 0006682 342.7406 17.3347 15.32523056139911 LEMUR-2-ALEXANDER 1 43559U 18046F 21015.52602169 .00003246 00000-0 11277-3 0 9991 2 43559 51.6400 159.7392 0006610 342.0125 18.0622 15.32714674139709 LEMUR-2-YUASA 1 43560U 18046G 21015.54580013 .00003137 00000-0 11017-3 0 9999 2 43560 51.6395 160.5983 0006879 356.4262 3.6669 15.32468758139911 LEMUR-2-TOMHENDERSON 1 43561U 18046H 21015.53010277 .00003224 00000-0 11397-3 0 9997 2 43561 51.6403 161.2325 0007111 355.7058 4.3861 15.32156286139467 1998-067PN 1 43638U 98067PN 21015.82194508 .00018183 00000-0 14177-3 0 9994 2 43638 51.6347 312.3152 0003510 111.6718 248.4655 15.71764031129970 1998-067PP 1 43639U 98067PP 21015.46827759 .00084098 00000-0 30440-3 0 9995 2 43639 51.6286 292.5100 0005981 138.5443 221.6016 15.87837206130217 STARS-ME 1 43640U 98067PQ 21015.20829627 .00031087 00000-0 20106-3 0 9993 2 43640 51.6322 308.1129 0005190 115.4759 244.6778 15.75771211129983 ISS DEB (SEDA-AP) 1 43870U 98067PU 21015.37515804 .00004517 00000-0 60833-4 0 9995 2 43870 51.6375 342.4709 0004662 112.4930 247.6557 15.60097080117717 CATSAT-2 1 44029U 98067PV 21015.53964479 .00059310 00000-0 30795-3 0 9990 2 44029 51.6396 312.7827 0004242 141.1547 218.9760 15.80396923111851 DELPHINI 1 44030U 98067PW 21015.78946150 .00081204 00000-0 33038-3 0 9995 2 44030 51.6297 306.6581 0005541 137.8138 222.3293 15.85460007111921 UNITE 1 44031U 98067PX 21015.58703578 .00015720 00000-0 14318-3 0 9999 2 44031 51.6381 328.8622 0003495 125.6519 234.4803 15.68110609111610 CATSAT-1 1 44033U 98067PZ 21015.53973259 .00061049 00000-0 31667-3 0 9992 2 44033 51.6394 312.7936 0003996 142.3465 217.7817 15.80407588111762 ISS DEB 1 44303U 98067QA 21015.43838957 .00005368 00000-0 80001-4 0 9995 2 44303 51.6411 0.2912 0005876 42.9146 317.2303 15.56874923 92752 ISS DEB 1 44304U 98067QB 21015.76353244 .00075432 00000-0 39010-3 0 9995 2 44304 51.6361 330.0770 0006015 83.8018 276.3669 15.80376103 93194 ISS DEB 1 44305U 98067QC 21015.04374372 .01427137 15990-2 10058-2 0 9992 2 44305 51.6168 318.8114 0008750 161.4542 198.6795 16.15810752 93276 ISS DEB 1 44306U 98067QD 21015.44124361 .00005793 00000-0 84971-4 0 9998 2 44306 51.6398 0.2270 0007005 38.9115 321.2380 15.57134590 92764 RAAVANA-1 1 44329U 98067QE 21015.27231731 .00019647 00000-0 19919-3 0 9996 2 44329 51.6383 347.8598 0006631 75.9797 284.1935 15.65227171 90080 UGUISU 1 44330U 98067QF 21015.30127226 .00018402 00000-0 18839-3 0 9993 2 44330 51.6362 347.9977 0006542 75.4855 284.6866 15.65033552 90066 NEPALISAT-1 1 44331U 98067QG 21015.32738673 .00019486 00000-0 19770-3 0 9998 2 44331 51.6358 347.4235 0006570 78.0257 282.1475 15.65215358 90087 SPOOQY-1 1 44332U 98067QH 21015.60897452 .00016319 00000-0 16857-3 0 9996 2 44332 51.6369 346.3226 0005831 81.2276 278.9380 15.64912221 90084 RED-EYE 1 (PINOT) 1 44364U 98067QJ 21015.39040328 .00005456 00000-0 81633-4 0 9994 2 44364 51.6415 1.4543 0007249 37.8423 322.3077 15.56724745 88322 IOD-1 GEMS 1 44385U 98067QK 21015.38529055 .00057335 00000-0 36435-3 0 9997 2 44385 51.6370 338.1191 0005064 80.9875 279.1698 15.75887797 87692 SWIATOWID 1 44426U 98067QL 21015.78260995 .00093537 00000-0 47567-3 0 9994 2 44426 51.6400 332.2819 0005656 88.3026 351.3495 15.80661553 87819 KRAKSAT 1 44427U 98067QM 21015.79900865 .00014328 00000-0 17317-3 0 9994 2 44427 51.6442 352.8068 0004109 45.5214 22.6173 15.60982947 87582 VCC A 1 44428U 98067QN 21015.30737404 .00017498 00000-0 18567-3 0 9998 2 44428 51.6392 350.4026 0003948 59.5925 300.5460 15.64175472 87576 ENTRYSAT 1 44429U 98067QP 21015.30755701 .00025782 00000-0 24036-3 0 9992 2 44429 51.6358 346.5754 0004020 61.8279 298.3122 15.67156241 87624 VCC C 1 44430U 98067QQ 21015.30366561 .00042166 00000-0 32302-3 0 9996 2 44430 51.6358 342.0423 0004368 75.3170 284.8312 15.71667025 86515 VCC B 1 44431U 98067QR 21015.61450488 .00016321 00000-0 17232-3 0 9992 2 44431 51.6370 348.6537 0004066 60.5553 299.5847 15.64362550 87563 ISS DEB 1 44788U 98067QT 21015.22408086 .00040117 00000-0 35412-3 0 9991 2 44788 51.6379 356.5475 0006518 68.9507 291.2186 15.68252322 66450 ISS DEB 1 44789U 98067QU 21015.42644974 .00033371 00000-0 31839-3 0 9995 2 44789 51.6377 357.1756 0007200 69.5009 290.6759 15.66415482 66456 RWASAT-1 1 44790U 98067QV 21015.80908718 .00010581 00000-0 15478-3 0 9997 2 44790 51.6422 4.8405 0008316 85.3404 339.5321 15.56178539 65657 AQT-D 1 44791U 98067QW 21015.45315534 .00007424 00000-0 11074-3 0 9997 2 44791 51.6425 7.1554 0007442 58.7724 301.3996 15.56180692 65591 NARSSCUBE-1 1 44792U 98067QX 21015.80803714 .00011649 00000-0 15229-3 0 9999 2 44792 51.6398 1.9641 0006000 76.3479 283.8182 15.59115999 65695 STPSAT-4 1 45043U 98067QY 21015.44718859 .00003835 00000-0 69968-4 0 9992 2 45043 51.6420 15.2924 0006232 70.5094 289.6569 15.52085309 54728 HARP 1 45256U 98067QZ 21015.47563285 .00008311 00000-0 12969-3 0 9994 2 45256 51.6427 11.7701 0007881 64.3217 295.8587 15.54740190 51447 1998-067RA 1 45257U 98067RA 21015.37412031 .00006418 00000-0 10370-3 0 9996 2 45257 51.6415 12.5673 0008396 66.0093 294.1776 15.54227001 51426 PHOENIX 1 45258U 98067RB 21015.42529388 .00005194 00000-0 87157-4 0 9995 2 45258 51.6414 12.8965 0006646 49.6664 310.4906 15.53633715 51395 1998-067RC 1 45259U 98067RC 21015.43800154 .00010273 00000-0 15155-3 0 9992 2 45259 51.6407 10.7434 0007736 64.1238 296.0551 15.55989655 51457 CRYOCUBE 1 45260U 98067RD 21015.35232929 .00011286 00000-0 16592-3 0 9995 2 45260 51.6408 10.9233 0008406 64.1671 296.0186 15.55962428 51458 AZTECHSAT-1 1 45261U 98067RE 21015.55943186 .00011991 00000-0 16610-3 0 9996 2 45261 51.6402 8.5541 0008160 64.6127 295.5709 15.57514465 51491 RADSAT-U 1 45262U 98067RF 21015.29072448 .00006341 00000-0 10181-3 0 9992 2 45262 51.6429 12.7832 0007169 94.8099 265.3711 15.54431503 51421 QARMAN 1 45263U 98067RG 21015.28514026 .00009577 00000-0 14270-3 0 9992 2 45263 51.6409 11.9703 0007772 60.6704 299.5062 15.55808431 51452 SORTIE 1 45264U 98067RH 21015.45720102 .00004467 00000-0 78525-4 0 9993 2 45264 51.6427 13.8807 0008097 70.7428 289.4437 15.52696303 51415 ICS-EF (ISS DEB) 1 45265U 98067RJ 21015.46176439 .00002601 00000-0 51592-4 0 9996 2 45265 51.6426 16.1330 0006060 71.2413 288.9233 15.51113923 51060 PROGRESS-MS 14 1 45595U 20026A 21015.52960699 .00001879 00000-0 41803-4 0 9998 2 45595 51.6459 17.7926 0000331 233.9493 270.9535 15.49297402264930 G-SAT 1 45597U 98067RK 21015.29522305 .00006183 00000-0 10082-3 0 9999 2 45597 51.6418 14.2983 0005133 113.0646 247.0886 15.54056230 40760 QUETZAL-1 1 45598U 98067RL 21015.23834220 .00008109 00000-0 12760-3 0 9991 2 45598 51.6418 14.6650 0002710 121.0327 239.0930 15.54563216 40688 RED-EYE 2 (MERLOT) 1 45800U 98067RM 21015.47595461 .00003568 00000-0 66876-4 0 9996 2 45800 51.6429 16.2425 0001949 84.8319 275.2893 15.51527456 32925 RED-EYE 3 (CABERNET) 1 45809U 98067RN 21015.47652800 .00003549 00000-0 66558-4 0 9992 2 45809 51.6429 16.2465 0002182 76.9758 283.1475 15.51524806 31904 DEMI 1 45916U 98067RP 21015.48037504 .00008930 00000-0 14355-3 0 9996 2 45916 51.6423 14.7819 0002959 29.1158 330.9997 15.53821922 28917 TECHEDSAT 10 1 45917U 98067RQ 21015.81757710 .00079842 00000-0 65401-3 0 9990 2 45917 51.6365 5.7550 0008089 63.2375 296.9450 15.69764715 29015 PROGRESS-MS 15 1 45937U 20050A 21015.52960699 .00001879 00000-0 41803-4 0 9995 2 45937 51.6459 17.7926 0000331 233.9493 270.9535 15.49297402264930 CYGNUS NG-14 1 46530U 20069A 21015.90186847 .00001922 00000-0 82633-4 0 9997 2 46530 51.6431 17.3981 0010102 320.9587 115.3958 15.27784877 16237 SOYUZ-MS 17 1 46613U 20072A 21015.52960699 .00001879 00000-0 41803-4 0 9991 2 46613 51.6459 17.7926 0000331 233.9493 270.9535 15.49297402264932 CREW DRAGON 1 1 46920U 20084A 21015.52960699 .00001879 00000-0 41803-4 0 9995 2 46920 51.6459 17.7926 0000331 233.9493 270.9535 15.49297402264933 SPOC 1 46921U 98067RR 21015.42825776 .00005074 00000-0 91960-4 0 9997 2 46921 51.6439 17.4286 0001321 211.3647 148.7264 15.51488266 11089 BOBCAT-1 1 46922U 98067RS 21015.28944220 .00007361 00000-0 12781-3 0 9992 2 46922 51.6440 18.0037 0000822 210.2131 149.8812 15.51949940 11020 NEUTRON-1 1 46923U 98067RT 21015.43244416 .00005053 00000-0 91917-4 0 9995 2 46923 51.6438 17.4559 0001104 236.0239 124.0646 15.51388358 11119 1998-067RU 1 46924U 98067RU 21015.40268564 .00012225 00000-0 20135-3 0 9995 2 46924 51.6429 17.2571 0001057 332.4880 27.6054 15.52745870 11086 LEMUR-2-BAXTER-OLIVER 1 46925U 98067RV 21015.46098852 .00011735 00000-0 19200-3 0 9999 2 46925 51.6437 16.9005 0001135 322.5090 37.5821 15.52975692 11050 LEMUR-2-DJARA 1 46926U 98067RW 21015.46531400 .00010942 00000-0 18046-3 0 9997 2 46926 51.6437 16.9286 0000198 318.1022 41.9953 15.52831011 11079 DESCENT 1 46927U 98067RX 21015.43490285 .00005082 00000-0 92519-4 0 9997 2 46927 51.6437 17.4714 0001285 278.3790 81.7054 15.51353052 11021